Regional Weather Roundup
Issued by NWS

Home | Current Version | Previous Version | Graphics & Text | Print | Product List | Glossary On
Versions: 1 2 3 4 5 6 7 8 9 10 11 12 13 14 15 16 17 18 19 20 21 22 23 24 25 26 27 28 29 30 31 32 33 34 35 36 37 38 39 40 41 42 43 44 45 46 47 48 49 50
000
ASUS45 KCYS 291910
RWRWY

WYOMING REGIONAL WEATHER ROUNDUP
NATIONAL WEATHER SERVICE CHEYENNE WY
100 PM MDT WED JUL 29 2015

NOTE:  "FAIR" INDICATES FEW OR NO CLOUDS BELOW 12,000 FEET
WITH NO SIGNIFICANT WEATHER AND/OR OBSTRUCTIONS TO VISIBILITY.

WYZ001-292000-
YELLOWSTONE NATIONAL PARK

CITY           SKY/WX    TMP DP  RH WIND       PRES   REMARKS
LK YELLOWSTONE   N/A     59  37  44 VRB5      30.49F
W YELLOWSTONE  NOT AVBL

$$
WYZ002>013-054>058-071-098>099-292000-
NORTHERN WYOMING

CITY           SKY/WX    TMP DP  RH WIND       PRES   REMARKS
JACKSON        FAIR      64  34  32 SW3       30.42F
CODY           FAIR      73  30  20 SE13      30.30F
GREYBULL       FAIR      75  28  17 CALM      30.27F
WORLAND        FAIR      77  30  17 N6        30.27F
SHERIDAN       FAIR      77  34  21 SE7       30.26F
BUFFALO        FAIR      74  33  22 S8        30.30F
GILLETTE       FAIR      74  31  20 VRB3      30.28F
HULETT         FAIR      73  36  25 W6        30.29F
NEWCASTLE      FAIR      73  34  23 S6        30.29F

$$
WYZ014>020-022>026-101>103-292000-
CENTRAL WYOMING

CITY           SKY/WX    TMP DP  RH WIND       PRES   REMARKS
BIG PINEY      FAIR      68  25  19 VRB5      30.44F
PINEDALE       FAIR      68  18  14 CALM      30.44F
DUBOIS         FAIR      70  19  14 NW13G20   30.39F
LANDER         NOT AVBL
RIVERTON       FAIR      71  28  20 SE7       30.34F
CASPER         FAIR      75  27  17 MISG      30.32F
DOUGLAS        FAIR      76  37  24 SE7       30.32F

$$
WYZ021-027>030-104>119-292000-
SOUTHERN WYOMING

CITY           SKY/WX    TMP DP  RH WIND       PRES   REMARKS
EVANSTON       FAIR      72  13  10 S5        30.43F
KEMMERER       FAIR      68  21  17 SW7       30.46S
FORT BRIDGER   CLEAR     70  21  16 N5        30.46F
ROCK SPRINGS   FAIR      69  25  19 MISG      30.42F
DIXON          FAIR      78  21  12 W8        30.41F
RAWLINS        FAIR      74  18  12 MISG      30.41F
SARATOGA       FAIR      73  21  14 CALM      30.42F
LARAMIE        FAIR      75  33  21 N10G16    30.41S
CHEYENNE       FAIR      77  49  37 S10G17    30.36F
TORRINGTON     FAIR      78  48  34 S9        30.28F
PINE BLUFFS    FAIR      79  45  29 S10G20    30.32F

$$


USA.gov is the U.S. government's official web portal to all federal, state and local government web resources and services.